CGYQB CYXU-CYXU

Flight info

Callsign CGYQB
Flight time 0h 9m
Altitude 3000
Route NE ROUTE BACK TO CYXU
Aircraft C172

Departure

Time 2026-04-22 01:48
Airport London International Airport (CYXU)

Arrival

Time 2026-04-22 01:57
Airport London International Airport (CYXU)
Time Latitude Longitude Altitude Speed Heading
2026-04-22 01:39 43.03222 -81.15259 903 ft 0 kts 63°
2026-04-22 01:43 43.03232 -81.15232 903 ft 0 kts 64°
2026-04-22 01:45 43.03253 -81.15203 903 ft 11 kts 44°
2026-04-22 01:45 43.03334 -81.15097 904 ft 12 kts 40°
2026-04-22 01:45 43.03339 -81.15091 904 ft 0 kts 37°
2026-04-22 01:47 43.03378 -81.15038 905 ft 20 kts 58°
2026-04-22 01:47 43.03228 -81.14799 903 ft 60 kts 144°
2026-04-22 01:47 43.02853 -81.14360 1068 ft 73 kts 136°
2026-04-22 01:47 43.02487 -81.13904 1368 ft 70 kts 136°
2026-04-22 01:48 43.02087 -81.13518 1635 ft 74 kts 176°
2026-04-22 01:48 43.01595 -81.13760 1780 ft 80 kts 221°
2026-04-22 01:48 43.01118 -81.14201 1915 ft 84 kts 217°
2026-04-22 01:48 43.00602 -81.14548 2129 ft 78 kts 214°
2026-04-22 01:49 43.00107 -81.14758 2384 ft 75 kts 205°
2026-04-22 01:49 42.99567 -81.14899 2485 ft 84 kts 208°
2026-04-22 01:49 42.98999 -81.15076 2695 ft 82 kts 203°
2026-04-22 01:49 42.98514 -81.15420 2723 ft 82 kts 252°
2026-04-22 01:50 42.98752 -81.16136 2807 ft 97 kts 309°
2026-04-22 01:50 42.99410 -81.16546 2877 ft 106 kts 322°
2026-04-22 01:50 43.00063 -81.16992 2967 ft 107 kts 317°
2026-04-22 01:50 43.00749 -81.17418 3067 ft 104 kts 319°
2026-04-22 01:51 43.01339 -81.17937 3122 ft 101 kts 308°
2026-04-22 01:51 43.01878 -81.18529 3184 ft 100 kts 307°
2026-04-22 01:51 43.02382 -81.19164 3250 ft 98 kts 301°
2026-04-22 01:51 43.02756 -81.19885 3351 ft 91 kts 290°
2026-04-22 01:52 43.03086 -81.20624 3465 ft 89 kts 293°
2026-04-22 01:52 43.03402 -81.21338 3599 ft 83 kts 288°
2026-04-22 01:52 43.03615 -81.22087 3657 ft 86 kts 277°
2026-04-22 01:52 43.03571 -81.22893 3687 ft 90 kts 261°
2026-04-22 01:53 43.03445 -81.23760 3677 ft 92 kts 258°
2026-04-22 01:53 43.03293 -81.24608 3705 ft 91 kts 255°
2026-04-22 01:53 43.03099 -81.25483 3574 ft 99 kts 258°
2026-04-22 01:53 43.03219 -81.26357 3508 ft 103 kts 301°
2026-04-22 01:54 43.03941 -81.26624 3370 ft 122 kts 356°
2026-04-22 01:54 43.04701 -81.26119 3357 ft 122 kts 25°
2026-04-22 01:54 43.05283 -81.25189 3225 ft 141 kts 53°
2026-04-22 01:54 43.05714 -81.24084 3368 ft 138 kts 62°
2026-04-22 01:55 43.06076 -81.22821 3305 ft 146 kts 68°
2026-04-22 01:55 43.06452 -81.21529 3228 ft 151 kts 66°
2026-04-22 01:55 43.06669 -81.20162 2961 ft 146 kts 94°
2026-04-22 01:55 43.06524 -81.18821 2727 ft 137 kts 113°
2026-04-22 01:56 43.05993 -81.17831 2176 ft 124 kts 155°
2026-04-22 01:56 43.05319 -81.17171 1514 ft 100 kts 150°
2026-04-22 01:56 43.04853 -81.16736 1148 ft 64 kts 141°
2026-04-22 01:56 43.04559 -81.16396 1046 ft 56 kts 133°
2026-04-22 01:57 43.04229 -81.15998 942 ft 71 kts 137°
2026-04-22 01:57 43.03944 -81.15656 902 ft 38 kts 137°
2026-04-22 01:57 43.03660 -81.15324 932 ft 71 kts 136°
2026-04-22 01:57 43.03273 -81.14854 1112 ft 79 kts 135°
2026-04-22 01:58 43.02827 -81.14399 1299 ft 83 kts 112°
2026-04-22 01:58 43.02881 -81.13550 1452 ft 93 kts 84°
2026-04-22 01:58 43.03260 -81.12856 1667 ft 99 kts 12°
2026-04-22 01:58 43.03926 -81.12983 1826 ft 98 kts 323°
2026-04-22 01:59 43.04415 -81.13508 2016 ft 86 kts 297°
2026-04-22 01:59 43.04875 -81.14099 2089 ft 103 kts 321°
2026-04-22 01:59 43.05663 -81.14117 2158 ft 123 kts 358°
2026-04-22 01:59 43.06505 -81.13962 2259 ft 120 kts 348°
2026-04-22 02:00 43.07235 -81.14150 2472 ft 93 kts 316°
2026-04-22 02:00 43.07697 -81.14696 2587 ft 88 kts 298°
2026-04-22 02:00 43.08316 -81.15128 2651 ft 112 kts 333°
2026-04-22 02:00 43.09155 -81.15223 2577 ft 125 kts 343°
2026-04-22 02:01 43.09985 -81.15374 2630 ft 114 kts 334°
2026-04-22 02:01 43.10672 -81.15816 2659 ft 107 kts 316°
2026-04-22 02:01 43.11208 -81.16463 2718 ft 103 kts 312°
2026-04-22 02:01 43.11935 -81.16806 2686 ft 119 kts 336°
2026-04-22 02:02 43.12482 -81.16972 2650 ft 121 kts 334°
2026-04-22 02:02 43.13258 -81.17298 2694 ft 113 kts 325°
2026-04-22 02:02 43.13910 -81.17778 2819 ft 100 kts 314°
2026-04-22 02:02 43.14496 -81.18312 2871 ft 105 kts 315°
2026-04-22 02:03 43.15159 -81.18726 2963 ft 107 kts 329°
2026-04-22 02:03 43.15885 -81.19040 2969 ft 110 kts 328°
2026-04-22 02:03 43.16623 -81.19442 2794 ft 118 kts 323°
2026-04-22 02:03 43.17381 -81.19828 2808 ft 113 kts 332°
2026-04-22 02:04 43.18922 -81.20307 2847 ft 113 kts 332°
2026-04-22 02:04 43.19670 -81.20615 2889 ft 112 kts 330°
2026-04-22 02:04 43.20350 -81.21042 2946 ft 105 kts 316°
2026-04-22 02:05 43.20787 -81.21725 2967 ft 91 kts 271°
2026-04-22 02:05 43.20519 -81.22482 2989 ft 96 kts 238°
2026-04-22 02:05 43.20092 -81.23238 2915 ft 101 kts 238°
2026-04-22 02:05 43.19670 -81.23978 2930 ft 97 kts 238°
2026-04-22 02:06 43.19283 -81.24737 2933 ft 97 kts 240°
2026-04-22 02:06 43.18957 -81.25546 2899 ft 97 kts 251°
2026-04-22 02:06 43.18774 -81.26421 2880 ft 98 kts 255°
2026-04-22 02:06 43.18578 -81.27300 2861 ft 97 kts 247°
2026-04-22 02:07 43.18206 -81.28078 2830 ft 99 kts 238°
2026-04-22 02:07 43.17751 -81.28803 2651 ft 99 kts 233°
2026-04-22 02:07 43.17258 -81.29465 2482 ft 100 kts 227°
2026-04-22 02:07 43.16567 -81.29665 2388 ft 114 kts 180°
2026-04-22 02:08 43.15793 -81.29491 2342 ft 112 kts 184°
2026-04-22 02:08 43.15065 -81.29200 2523 ft 116 kts 150°
2026-04-22 02:08 43.14538 -81.28309 2649 ft 121 kts 139°
2026-04-22 02:08 43.13996 -81.27470 2791 ft 115 kts 143°
2026-04-22 02:09 43.13424 -81.26729 2927 ft 113 kts 148°
2026-04-22 02:09 43.12830 -81.26009 3006 ft 116 kts 154°
2026-04-22 02:09 43.12129 -81.25396 2962 ft 124 kts 159°
2026-04-22 02:09 43.11439 -81.24641 2942 ft 132 kts 144°
2026-04-22 02:10 43.10743 -81.23746 2683 ft 143 kts 148°
2026-04-22 02:10 43.09999 -81.22908 2506 ft 129 kts 154°
2026-04-22 02:10 43.09293 -81.22142 2326 ft 135 kts 148°
2026-04-22 02:10 43.08651 -81.21233 2127 ft 119 kts 152°
2026-04-22 02:11 43.08080 -81.20585 1993 ft 98 kts 161°
2026-04-22 02:11 43.07513 -81.19993 1899 ft 108 kts 152°
2026-04-22 02:11 43.06969 -81.19276 1800 ft 112 kts 148°
2026-04-22 02:11 43.06358 -81.18591 1542 ft 110 kts 147°
2026-04-22 02:12 43.05844 -81.17947 1363 ft 91 kts 144°
2026-04-22 02:12 43.05399 -81.17397 1265 ft 87 kts 137°
2026-04-22 02:12 43.04947 -81.16863 1148 ft 85 kts 135°
2026-04-22 02:12 43.04540 -81.16381 1030 ft 68 kts 134°
2026-04-22 02:13 43.04211 -81.15986 951 ft 64 kts 136°
2026-04-22 02:13 43.03909 -81.15617 901 ft 47 kts 136°
2026-04-22 02:13 43.03689 -81.15347 921 ft 54 kts 140°
2026-04-22 02:13 43.03330 -81.14995 1065 ft 70 kts 140°
2026-04-22 02:14 43.02940 -81.14615 1306 ft 72 kts 143°
2026-04-22 02:14 43.02574 -81.14132 1530 ft 81 kts 120°
2026-04-22 02:14 43.02611 -81.13274 1686 ft 102 kts 74°
2026-04-22 02:14 43.02943 -81.12356 1831 ft 112 kts 59°
2026-04-22 02:15 43.03396 -81.11481 2033 ft 107 kts 20°
2026-04-22 02:15 43.04097 -81.11556 1970 ft 104 kts 318°
2026-04-22 02:15 43.04687 -81.12082 1890 ft 97 kts 307°
2026-04-22 02:15 43.05135 -81.12708 1915 ft 87 kts 298°
2026-04-22 02:16 43.05503 -81.13314 1988 ft 86 kts 290°
2026-04-22 02:16 43.05782 -81.14088 2018 ft 94 kts 283°
2026-04-22 02:16 43.05984 -81.14957 2020 ft 96 kts 274°
2026-04-22 02:16 43.06065 -81.15901 1955 ft 96 kts 265°
2026-04-22 02:17 43.05797 -81.16613 1833 ft 90 kts 229°
2026-04-22 02:17 43.05302 -81.17203 1366 ft 83 kts 208°
2026-04-22 02:17 43.04934 -81.16973 1216 ft 63 kts 124°
2026-04-22 02:17 43.04632 -81.16505 1101 ft 67 kts 134°
2026-04-22 02:18 43.04278 -81.16068 982 ft 67 kts 136°
2026-04-22 02:18 43.03966 -81.15691 903 ft 47 kts 138°
2026-04-22 02:18 43.03685 -81.15356 932 ft 69 kts 138°
2026-04-22 02:18 43.03293 -81.14885 1118 ft 78 kts 135°
2026-04-22 02:19 43.02874 -81.14364 1311 ft 84 kts 136°
2026-04-22 02:19 43.02444 -81.13788 1463 ft 92 kts 140°
2026-04-22 02:19 43.02246 -81.12965 1665 ft 106 kts 78°
2026-04-22 02:19 43.02629 -81.12098 1827 ft 110 kts 31°
2026-04-22 02:20 43.03291 -81.12101 1938 ft 96 kts 317°
2026-04-22 02:20 43.03859 -81.12652 1935 ft 105 kts 308°
2026-04-22 02:20 43.04406 -81.13329 1871 ft 103 kts 303°
2026-04-22 02:20 43.04857 -81.14057 1752 ft 98 kts 297°
2026-04-22 02:21 43.05229 -81.14768 1919 ft 87 kts 291°
2026-04-22 02:21 43.05526 -81.15481 2071 ft 87 kts 285°
2026-04-22 02:21 43.05536 -81.16205 2245 ft 78 kts 238°
2026-04-22 02:21 43.05115 -81.16727 1846 ft 84 kts 220°
2026-04-22 02:22 43.04596 -81.16427 1238 ft 89 kts 150°
2026-04-22 02:22 43.04220 -81.16002 995 ft 62 kts 131°
2026-04-22 02:22 43.04070 -81.15483 1051 ft 72 kts 67°
2026-04-22 02:22 43.04590 -81.15414 1241 ft 93 kts 323°
2026-04-22 02:23 43.05040 -81.16066 1303 ft 101 kts 325°
2026-04-22 02:23 43.05618 -81.16575 1545 ft 96 kts 323°
2026-04-22 02:23 43.06187 -81.17123 1635 ft 106 kts 316°
2026-04-22 02:23 43.06711 -81.17739 1703 ft 96 kts 310°
2026-04-22 02:24 43.07017 -81.18394 1844 ft 81 kts 236°
2026-04-22 02:24 43.06381 -81.18384 1731 ft 120 kts 159°
2026-04-22 02:24 43.05680 -81.17749 1408 ft 118 kts 142°
2026-04-22 02:24 43.05093 -81.17047 1204 ft 105 kts 137°
2026-04-22 02:25 43.04563 -81.16400 1058 ft 100 kts 136°
2026-04-22 02:25 43.04114 -81.15749 1099 ft 90 kts 107°
2026-04-22 02:25 43.04445 -81.15140 1328 ft 98 kts
2026-04-22 02:25 43.04818 -81.15743 1438 ft 95 kts 250°
2026-04-22 02:26 43.04310 -81.16044 1063 ft 78 kts 153°
2026-04-22 02:26 43.03969 -81.15690 903 ft 45 kts 140°
2026-04-22 02:26 43.03791 -81.15475 903 ft 27 kts 138°
2026-04-22 02:26 43.03636 -81.15292 904 ft 26 kts 144°
2026-04-22 02:27 43.03536 -81.15349 904 ft 12 kts 224°
2026-04-22 02:27 43.03519 -81.15374 903 ft 0 kts 227°